This demonstration page uses our WeatherBlox Daily Observations layout. Learn more.

Left ArrowRight Arrow

44.8408, -93.29828

Hourly Observations for March 30, 2015

Temp ( °F °C ) Dew Point ( °F °C ) Humidity (%) Winds ( mph kmh ) Pressure ( in mb ) Visibility ( mi km ) Precip ( " mm )
12:53 am 00:53 Mostly Cloudy 42 5.6 28 -2.2 58 58 WSW 8 13 29.98 1015 10 16 0.00 0.00
1:53 am 01:53 Cloudy 41 5 28 -2.2 60 60 SW 5 7 29.97 1015 10 16 0.00 0.00
2:53 am 02:53 Cloudy 41 5 29 -1.7 62 62 WSW 7 11 29.97 1015 10 16 0.00 0.00
3:53 am 03:53 Cloudy 40 4.4 28 -2.2 63 63 WSW 8 13 29.97 1015 10 16 0.00 0.00
4:53 am 04:53 Mostly Clear 38 3.3 28 -2.2 68 68 SW 3 6 29.96 1015 10 16 0.00 0.00
5:53 am 05:53 Partly Cloudy 37 2.8 28 -2.2 70 70 SSW 3 6 29.97 1015 10 16 0.00 0.00
6:53 am 06:53 Mostly Cloudy 37 2.8 27 -2.8 67 67 SSW 3 6 29.99 1016 10 16 0.00 0.00
7:53 am 07:53 Cloudy 40 4.4 27 -2.8 60 60 WSW 3 6 29.98 1015 10 16 0.00 0.00
8:53 am 08:53 Cloudy 39 3.9 28 -2.2 65 65 SSW 6 9 29.98 1015 10 16 0.00 0.00
9:53 am 09:53 Cloudy 41 5 28 -2.2 60 60 Calm 29.96 1015 10 16 0.00 0.00
10:53 am 10:53 Cloudy 43 6.1 29 -1.7 58 58 SE 3 6 29.97 1015 10 16 0.00 0.00
11:53 am 11:53 Cloudy 46 7.8 30 -1.1 54 54 ESE 5 7 29.96 1014 10 16 0.00 0.00
12:53 pm 12:53 Cloudy 49 9.4 30 -1.1 48 48 E 10 17 29.92 1013 10 16 0.00 0.00
1:53 pm 13:53 Mostly Cloudy 51 10.6 31 -0.6 46 46 SE 14 22 29.89 1012 10 16 0.00 0.00
2:53 pm 14:53 Mostly Cloudy 53 11.7 31 -0.6 43 43 SE 15 24 29.86 1011 10 16 0.00 0.00
3:53 pm 15:53 Mostly Cloudy 54 12.2 33 0.6 45 45 SE 13 20 29.83 1010 10 16 0.00 0.00
4:53 pm 16:53 Partly Cloudy 57 13.9 34 1.1 42 42 ESE 13 20 29.80 1009 10 16 0.00 0.00
5:53 pm 17:53 Mostly Sunny 56 13.3 35 1.7 46 46 ESE 8 13 29.77 1008 10 16 0.00 0.00
6:53 pm 18:53 Mostly Sunny 56 13.3 35 1.7 46 46 NE 6 9 29.78 1009 10 16 0.00 0.00
7:53 pm 19:53 Mostly Clear 52 11.1 34 1.1 50 50 NNE 9 15 29.81 1010 10 16 0.00 0.00
8:53 pm 20:53 Clear 48 8.9 38 3.3 68 68 NNE 15 24 29.85 1011 10 16 0.00 0.00
9:53 pm 21:53 Clear 45 7.2 38 3.3 77 77 NE 9 15 29.88 1012 10 16 0.00 0.00
10:53 pm 22:53 Clear 42 5.6 37 2.8 82 82 N 6 9 29.91 1013 10 16 0.00 0.00
11:53 pm 23:53 Clear 41 5 36 2.2 82 82 Calm 29.91 1013 10 16 0.00 0.00

Powered by AerisWeather